User: anonymous   Login
Location: Palomar Mountain Lodge
(33.3110°N, 116.8495°W)
Time: 09:21:38
(UTC-07:00)
Language:

deb Kosmos-1763 - Orbit

View from above orbital plane
View from above orbital plane
View from above satellite
View from above satellite

Ground track
Ground track

The orbit data is extracted from the following two-line orbital elements,

1 16865U 86052C   18295.50889837  .00004242  00000-0  16931-3 0  9995
2 16865  74.0042 217.4901 0008588  84.0518 276.1661 15.25492843730095
Epoch (UTC): 22 October 2018 12:12:48
Eccentricity: 0.0008588
inclination: 74.0042°
perigee height: 483 km
apogee height: 495 km
right ascension of ascending node: 217.4901°
argument of perigee: 84.0518°
revolutions per day: 15.25492843
mean anomaly at epoch: 276.1661°
orbit number at epoch: 73009

The dashed part of the orbit path shows where the satellite is in the earth's shadow,  

DLR